Regional Weather Roundup
Issued by NWS Northern Indiana

Home | Current Version | Previous Version | Graphics & Text | Print | Product List | Glossary On
Versions: 1 2 3 4 5 6 7 8 9 10 11 12 13 14 15 16 17 18 19 20 21 22 23 24 25 26 27 28 29 30 31 32 33 34 35 36 37 38 39 40 41 42 43 44 45 46 47 48 49 50
854
ASUS43 KIWX 270000
RWRIWX

KIWX WEATHER ROUNDUP
NATIONAL WEATHER SERVICE NORTHERN INDIANA
800 PM EDT WED APR 26 2017

NOTE: "FAIR" INDICATES FEW OR NO CLOUDS BELOW 12,000 FEET WITH NO
SIGNIFICANT WEATHER AND/OR OBSTRUCTIONS TO VISIBILITY.

* THESE STATIONS ARE NOT UNDER NWS QUALITY CONTROL. THEY ALSO MAY NOT
  REPORT WEATHER SUCH AS PRECIPITATION OR FOG.

INZ001>027-270100-
NORTHERN INDIANA

CITY           SKY/WX    TMP DP  RH WIND       PRES   REMARKS
GARY*          MOCLDY    75  50  41 SW12      29.47F
KNOX*          CLOUDY    73  23  15 W13       29.50S
SOUTH BEND     CLOUDY    74  55  51 SW6       29.51S
6HR MIN TEMP:  73; 6HR MAX TEMP:  82;

ELKHART*       PTCLDY    75  55  50 SW9       29.50S
GOSHEN         CLOUDY    75  54  47 W9        29.51R
6HR MIN TEMP:  75; 6HR MAX TEMP:  82;

MONTICELLO*    RAIN      70  56  62 CALM      29.49F
6HR MIN TEMP:  70; 6HR MAX TEMP:  83; 6HR PCP:  0.02;

ANGOLA*        PTCLDY    79  72  78 SW3       29.51F
FORT WAYNE     CLOUDY    77  60  55 S7        29.50F THUNDER
6HR MIN TEMP:  77; 6HR MAX TEMP:  85;

PERU/GRISSOM   TSTM      72  63  73 NW13      29.49S

$$
INZ028>050-270100-
CENTRAL INDIANA

CITY           SKY/WX    TMP DP  RH WIND       PRES   REMARKS
LAFAYETTE      CLOUDY    66  61  84 SW3       29.46F
6HR MIN TEMP:  65; 6HR MAX TEMP:  82; 6HR PCP: TRACE;

KOKOMO*        TSTM      73  61  65 W29G35    29.58R
6HR MIN TEMP:  73; 6HR MAX TEMP:  85; 6HR PCP:  0.02;

MUNCIE*        PTCLDY    81  58  45 S14G20    29.52S
6HR MIN TEMP:  81; 6HR MAX TEMP:  86;

INDIANAPOLIS   CLOUDY    69  59  70 NW9       29.52R THUNDER
6HR MIN TEMP:  69; 6HR MAX TEMP:  83;


$$
MIZ043>046-050>051-056>058-064>065-071>073-077>080-270100-
SOUTHWEST LOWER MICHIGAN

CITY           SKY/WX    TMP DP  RH WIND       PRES   REMARKS
BATTLE CREEK   PTCLDY    73  57  57 NW6       29.52S
6HR MIN TEMP:  73; 6HR MAX TEMP:  82;

BENTON HARBOR  CLOUDY    67  53  61 W5        29.49F
6HR MIN TEMP:  66; 6HR MAX TEMP:  80;

COLDWATER*     MOCLDY    76  54  44 SW5       29.50F
6HR MIN TEMP:  76; 6HR MAX TEMP:  82;

HILLSDALE*     MOCLDY    77  55  47 SW3       29.52S
HOLLAND        CLOUDY    68  55  63 W5        29.50F
6HR MIN TEMP:  68; 6HR MAX TEMP:  81;

GRAND RAPIDS   CLOUDY    72  56  57 W9        29.50F
6HR MIN TEMP:  72; 6HR MAX TEMP:  81; 6HR PCP: TRACE;

KALAMAZOO      PTCLDY    72  54  53 NW6       29.51S
6HR MIN TEMP:  72; 6HR MAX TEMP:  82;

STURGIS*       PTCLDY    75  55  50 W7        29.50S
6HR MIN TEMP:  75; 6HR MAX TEMP:  82;

THREE RIVERS*  FAIR      73  56  53 NW3       29.50S
6HR MIN TEMP:  73; 6HR MAX TEMP:  80;


$$
OHZ001>008-015>018-024>025-270100-
NORTHWEST OHIO

CITY           SKY/WX    TMP DP  RH WIND       PRES   REMARKS
DEFIANCE       MOCLDY    78  58  49 S8        29.51F
6HR MIN TEMP:  78; 6HR MAX TEMP:  83;

FINDLAY        CLEAR     80  54  40 S14       29.54F
6HR MIN TEMP:  80; 6HR MAX TEMP:  87;

TOLEDO EXPRESS CLEAR     80  57  45 S7        29.52F
6HR MIN TEMP:  80; 6HR MAX TEMP:  85;

TOLEDO METCALF CLEAR     80  57  45 S9        29.53F
6HR MIN TEMP:  80; 6HR MAX TEMP:  86;

LIMA           CLEAR     78  57  48 S12       29.56S
6HR MIN TEMP:  78; 6HR MAX TEMP:  83;


$$
AND FOR LAKE MICHIGAN COASTAL AND OPEN LAKE BUOY OBSERVATIONS

STATION/POSITION TEMP    WIND        PRES    VSBY  WAVE
                 AIR SEA DIR/SP/G                  HT/PER
                 (F)     (DEG/KT/KT) (MB)    (MI)  (FT/S)
CALUMET HARBOR    74     200/ 12/ 17  997.5F
MICHIGAN CITY     74     190/  8/ 10   N/A
BURNS HARBOR      73     210/  8/ 16  998.6F
SOUTH LAKE BUOY   49 42  160/  8/  8  998.8          1/ 3
4 MI NW BRIDGMAN  56 49  160/  4/  4  998.7F         1/ 4
MICHIGAN CITY     61 49                N/A           1/ 3

$$
&&




USA.gov is the U.S. government's official web portal to all federal, state and local government web resources and services.